When you browse on this site, cookies collect data to enhance your experience and personalize the content and advertising you see.
Visit our Privacy Policy to learn more. By continuing to use the site, you agree to this use of cookies and data.
EN

Hourly Weather Malin

Today, 5 July, Sunday

Time Temperature Precipitation Wind Pressure Humidity
00:00 +19°C° 0 mm 2 mps 747 mmHg 93%
01:00 +19°C° 0 mm 2 mps 747 mmHg 94%
02:00 +18°C° 0 mm 2 mps 747 mmHg 95%
03:00 +18°C° 0.1 mm 2 mps 747 mmHg 95%
04:00 +18°C° 0.1 mm 2 mps 747 mmHg 94%
05:00 +18°C° 0.1 mm 2 mps 747 mmHg 94%
06:00 +19°C° 0.2 mm 2 mps 747 mmHg 90%
07:00 +20°C° 0.2 mm 3 mps 747 mmHg 86%
08:00 +22°C° 0.2 mm 3 mps 747 mmHg 82%
09:00 +24°C° 0 mm 3 mps 747 mmHg 75%
10:00 +25°C° 0 mm 3 mps 747 mmHg 68%
11:00 +27°C° 0 mm 3 mps 747 mmHg 61%
12:00 +27°C° 0 mm 3 mps 747 mmHg 59%
13:00 +28°C° 0 mm 3 mps 747 mmHg 57%
14:00 +28°C° 0 mm 3 mps 747 mmHg 54%
15:00 +28°C° 0 mm 3 mps 747 mmHg 56%
16:00 +28°C° 0 mm 3 mps 746 mmHg 57%
17:00 +27°C° 0 mm 3 mps 746 mmHg 59%
18:00 +26°C° 0 mm 3 mps 746 mmHg 64%
19:00 +24°C° 0 mm 2 mps 746 mmHg 69%
20:00 +21°C° 0 mm 2 mps 746 mmHg 74%
21:00 +20°C° 0 mm 2 mps 746 mmHg 77%
22:00 +20°C° 0 mm 2 mps 746 mmHg 79%
23:00 +19°C° 0 mm 2 mps 747 mmHg 82%

Tomorrow, 6 July, Monday

Time Temperature Precipitation Wind Pressure Humidity
00:00 +19°C° 0 mm 1 mps 746 mmHg 84%
01:00 +19°C° 0 mm 1 mps 746 mmHg 86%
02:00 +19°C° 0 mm 1 mps 746 mmHg 89%
03:00 +19°C° 0 mm 1 mps 746 mmHg 89%
04:00 +19°C° 0 mm 1 mps 746 mmHg 89%
05:00 +19°C° 0 mm 1 mps 746 mmHg 89%
06:00 +21°C° 0 mm 1 mps 746 mmHg 83%
07:00 +23°C° 0 mm 1 mps 746 mmHg 77%
08:00 +25°C° 0 mm 1 mps 746 mmHg 71%
09:00 +26°C° 0 mm 1 mps 746 mmHg 66%
10:00 +27°C° 0 mm 1 mps 746 mmHg 61%
11:00 +28°C° 0 mm 1 mps 746 mmHg 56%
12:00 +28°C° 0 mm 1 mps 745 mmHg 54%
13:00 +29°C° 0 mm 1 mps 745 mmHg 52%
14:00 +30°C° 0 mm 1 mps 744 mmHg 50%
15:00 +29°C° 0 mm 1 mps 744 mmHg 51%
16:00 +29°C° 0 mm 1 mps 744 mmHg 52%
17:00 +29°C° 0 mm 1 mps 743 mmHg 53%
18:00 +28°C° 0 mm 1 mps 743 mmHg 60%
19:00 +26°C° 0 mm 1 mps 743 mmHg 67%
20:00 +24°C° 0 mm 1 mps 743 mmHg 73%
21:00 +23°C° 0 mm 1 mps 743 mmHg 75%
22:00 +22°C° 0 mm 1 mps 743 mmHg 78%
23:00 +22°C° 0 mm 1 mps 743 mmHg 80%

Day after tomorrow, 7 July, Tuesday

Time Temperature Precipitation Wind Pressure Humidity
00:00 +21°C° 0 mm 1 mps 742 mmHg 81%
01:00 +21°C° 0 mm 1 mps 742 mmHg 82%
02:00 +20°C° 0 mm 1 mps 742 mmHg 84%
03:00 +20°C° 0 mm 1 mps 742 mmHg 84%
04:00 +20°C° 0 mm 1 mps 742 mmHg 84%
05:00 +20°C° 0 mm 1 mps 742 mmHg 85%
06:00 +22°C° 0.1 mm 1 mps 742 mmHg 81%
07:00 +24°C° 0.1 mm 2 mps 742 mmHg 77%
08:00 +25°C° 0.1 mm 2 mps 742 mmHg 73%
09:00 +26°C° 0.3 mm 3 mps 742 mmHg 71%
10:00 +27°C° 0.3 mm 3 mps 742 mmHg 70%
11:00 +27°C° 0.3 mm 4 mps 742 mmHg 69%
12:00 +27°C° 1.2 mm 4 mps 742 mmHg 69%
13:00 +27°C° 1.2 mm 4 mps 742 mmHg 68%
14:00 +27°C° 1.2 mm 4 mps 742 mmHg 68%
15:00 +27°C° 0.7 mm 5 mps 742 mmHg 71%
16:00 +26°C° 0.7 mm 5 mps 742 mmHg 75%
17:00 +24°C° 0.7 mm 6 mps 742 mmHg 78%
18:00 +23°C° 0.1 mm 5 mps 742 mmHg 81%
19:00 +22°C° 0.1 mm 5 mps 743 mmHg 84%
20:00 +20°C° 0.1 mm 5 mps 743 mmHg 86%
21:00 +20°C° 0 mm 5 mps 743 mmHg 86%
22:00 +19°C° 0 mm 5 mps 743 mmHg 85%
23:00 +17°C° 0 mm 5 mps 744 mmHg 84%

8 July, Wednesday

Time Temperature Precipitation Wind Pressure Humidity
00:00 +17°C° 0 mm 5 mps 744 mmHg 82%
01:00 +16°C° 0 mm 5 mps 744 mmHg 79%
02:00 +16°C° 0 mm 5 mps 744 mmHg 76%
03:00 +16°C° 0 mm 5 mps 744 mmHg 75%
04:00 +16°C° 0 mm 5 mps 744 mmHg 73%
05:00 +15°C° 0 mm 5 mps 744 mmHg 71%
06:00 +16°C° 0 mm 5 mps 745 mmHg 72%
07:00 +16°C° 0 mm 5 mps 745 mmHg 74%
08:00 +17°C° 0 mm 5 mps 745 mmHg 75%
09:00 +19°C° 0 mm 5 mps 745 mmHg 72%
10:00 +20°C° 0 mm 5 mps 745 mmHg 70%
11:00 +21°C° 0 mm 5 mps 746 mmHg 67%
12:00 +22°C° 0.1 mm 5 mps 746 mmHg 66%
13:00 +22°C° 0.1 mm 5 mps 746 mmHg 65%
14:00 +23°C° 0.1 mm 4 mps 746 mmHg 63%
15:00 +23°C° 0 mm 4 mps 745 mmHg 64%
16:00 +23°C° 0 mm 4 mps 745 mmHg 64%
17:00 +24°C° 0 mm 3 mps 745 mmHg 64%
18:00 +22°C° 0 mm 3 mps 745 mmHg 69%
19:00 +20°C° 0 mm 3 mps 745 mmHg 74%
20:00 +19°C° 0 mm 2 mps 745 mmHg 79%
21:00 +18°C° 0 mm 3 mps 746 mmHg 80%
22:00 +17°C° 0 mm 3 mps 746 mmHg 82%
23:00 +16°C° 0 mm 3 mps 746 mmHg 83%

9 July, Thursday

Time Temperature Precipitation Wind Pressure Humidity
00:00 +16°C° 0 mm 3 mps 746 mmHg 83%
01:00 +14°C° 0 mm 3 mps 746 mmHg 84%
02:00 +14°C° 0 mm 3 mps 746 mmHg 85%
03:00 +13°C° 0 mm 3 mps 746 mmHg 86%
04:00 +13°C° 0 mm 3 mps 746 mmHg 88%
05:00 +12°C° 0 mm 3 mps 746 mmHg 89%
06:00 +14°C° 0 mm 3 mps 746 mmHg 82%
07:00 +17°C° 0 mm 4 mps 747 mmHg 76%
08:00 +19°C° 0 mm 4 mps 747 mmHg 69%
09:00 +20°C° 0 mm 4 mps 747 mmHg 65%
10:00 +21°C° 0 mm 4 mps 747 mmHg 61%
11:00 +22°C° 0 mm 4 mps 747 mmHg 57%
12:00 +23°C° 0.1 mm 4 mps 747 mmHg 56%
13:00 +23°C° 0.1 mm 5 mps 747 mmHg 55%
14:00 +25°C° 0.1 mm 5 mps 746 mmHg 55%
15:00 +25°C° 0 mm 5 mps 746 mmHg 56%
16:00 +25°C° 0 mm 5 mps 746 mmHg 57%
17:00 +25°C° 0 mm 5 mps 746 mmHg 58%
18:00 +22°C° 0 mm 4 mps 746 mmHg 66%
19:00 +20°C° 0 mm 4 mps 747 mmHg 73%
20:00 +18°C° 0 mm 3 mps 747 mmHg 80%
21:00 +17°C° 0 mm 3 mps 747 mmHg 81%
22:00 +16°C° 0 mm 3 mps 748 mmHg 82%
23:00 +13°C° 0 mm 3 mps 748 mmHg 82%

10 July, Friday

Time Temperature Precipitation Wind Pressure Humidity
00:00 +13°C° 0 mm 3 mps 748 mmHg 84%
01:00 +13°C° 0 mm 2 mps 748 mmHg 85%
02:00 +13°C° 0 mm 2 mps 749 mmHg 87%
03:00 +13°C° 0 mm 2 mps 749 mmHg 88%
04:00 +12°C° 0 mm 2 mps 749 mmHg 88%
05:00 +12°C° 0 mm 2 mps 749 mmHg 89%
06:00 +14°C° 0 mm 2 mps 749 mmHg 82%
07:00 +16°C° 0 mm 2 mps 750 mmHg 75%
08:00 +18°C° 0 mm 2 mps 750 mmHg 69%
09:00 +19°C° 0 mm 2 mps 750 mmHg 63%
10:00 +20°C° 0 mm 3 mps 750 mmHg 58%
11:00 +22°C° 0 mm 3 mps 750 mmHg 52%
12:00 +22°C° 0 mm 3 mps 750 mmHg 50%
13:00 +24°C° 0 mm 2 mps 749 mmHg 47%
14:00 +24°C° 0 mm 2 mps 749 mmHg 45%
15:00 +24°C° 0 mm 2 mps 749 mmHg 47%
16:00 +24°C° 0 mm 2 mps 749 mmHg 49%
17:00 +24°C° 0 mm 2 mps 749 mmHg 50%
18:00 +21°C° 0 mm 2 mps 749 mmHg 57%
19:00 +21°C° 0 mm 1 mps 749 mmHg 63%
20:00 +19°C° 0 mm 1 mps 749 mmHg 69%
21:00 +18°C° 0 mm 1 mps 749 mmHg 70%
22:00 +16°C° 0 mm 1 mps 749 mmHg 72%
23:00 +16°C° 0 mm 1 mps 749 mmHg 74%
Show more